Tracking 23582 objects as of 31-Jul-2021
HD Live streaming from Space Station
objects crossing your sky now

CSO 2

Track CSO 2 now!
10-day predictions


NORAD ID: 47305
Int'l Code: 2020-104A
Perigee: 489.5 km
Apogee: 494.9 km
Inclination: 97.4 °
Period: 94.3 minutes
Semi major axis: 6863 km
RCS: Unknown
Launch date: December 29, 2020
Source: France (FR)
Launch site: FRENCH GUIANA (FRGUI)
aabbcc
Your satellite tracking list
Your tracking list is empty




NASA's NSSDC Master Catalog

Two Line Element Set (TLE):
1 47305U 20104A   21205.03671429 0.00000000  00000-0  00000-0 0    01
2 47305  97.3558 145.3833 0004002  33.1614 326.8385 15.26907488    04
Source of the keplerian elements: McCants